[[{"header":{"parameterUnit":"m.s-1","parameterCategory":1,"la1":30.2991,"la2":30.254,"lo1":-89.0895,"lo2":-89.0444,"dy":0.0017,"dx":0.0017,"nx":28,"ny":28,"refTime":"2024-07-26T09:00:00:Z","depth":0,"parameterNumber":2,"parameterNumberName":"U-component_of_WINDS"},"data":[0,0,0,0,0,0,0,0,0,0,0,0,0,0,0,0,0,0,0,0,0,0,0,0,0,0,0,0,0,0,0,0,0,0,0,0,0,0,0,0,0,0,0,0,0,0,0,0,0,0,0,0,0,0,0,0,0,0,-1.5417,-1.5418,0,-1.5424,-1.5424,-1.5424,-1.5411,-1.5411,-1.5411,-1.541,-1.5416,-1.5416,-1.5417,0,0,0,0,0,0,0,0,0,0,0,0,0,-1.5394,-1.5394,-1.5417,-1.5418,-1.5418,-1.5424,-1.5424,-1.5424,-1.5411,-1.5411,-1.5411,-1.541,-1.5416,-1.5416,-1.5417,0,0,0,0,0,0,0,0,0,0,0,0,0,-1.5402,-1.5395,-1.5417,-1.5412,-1.5412,-1.5424,-1.5424,-1.5424,-1.5412,-1.5411,-1.541,-1.541,-1.5416,-1.5416,-1.5417,-1.5434,0,0,-1.542,-1.542,0,0,0,0,0,0,0,0,-1.5402,-1.5403,-1.5413,-1.5413,-1.5412,-1.5416,-1.5417,-1.5427,-1.5412,-1.5412,-1.541,-1.541,-1.5416,-1.5417,-1.542,-1.5434,-1.5435,-1.542,-1.542,-1.542,-1.5421,0,0,0,0,0,0,0,-1.5401,-1.5403,-1.542,-1.5413,-1.5413,-1.5409,-1.541,-1.5419,-1.5417,-1.5412,-1.5411,-1.5412,-1.5416,-1.5419,-1.542,-1.5435,-1.542,-1.542,-1.5421,-1.5421,-1.5462,-1.5463,0,0,0,0,0,0,-1.5402,-1.5403,-1.542,-1.542,-1.5406,-1.541,-1.5411,-1.5415,-1.5417,-1.5417,-1.5412,-1.5411,-1.5418,-1.5419,-1.542,-1.5438,-1.542,-1.5421,-1.5422,-1.5461,-1.5462,-1.5463,0,0,0,0,0,0,-1.5401,-1.5403,-1.5419,-1.5411,-1.5413,-1.5411,-1.5417,-1.5416,-1.5419,-1.5418,-1.5417,-1.5415,-1.5417,-1.5419,-1.543,-1.5439,-1.5422,-1.5422,-1.5461,-1.5462,-1.5462,-1.5477,0,0,0,0,0,0,-1.5401,-1.5403,-1.541,-1.5411,-1.5413,-1.543,-1.5417,-1.5416,-1.542,-1.5419,-1.5421,-1.542,-1.5417,-1.5429,-1.5431,-1.5439,-1.5423,-1.546,-1.5461,-1.5462,-1.5476,-1.5478,-1.548,0,0,0,0,0,-1.54,-1.5414,-1.541,-1.5412,-1.5422,-1.5431,-1.5432,-1.5428,-1.5421,-1.5427,-1.5426,-1.542,-1.5438,-1.543,-1.5433,-1.5441,-1.5459,-1.5461,-1.5462,-1.5475,-1.5478,-1.548,0,0,0,0,0,0,-1.5414,-1.5414,-1.541,-1.5425,-1.5428,-1.5429,-1.5437,-1.5432,-1.5436,-1.5435,-1.543,-1.543,-1.5443,-1.5443,-1.5435,-1.5457,-1.5447,-1.5449,-1.5456,-1.5459,-1.5461,-1.546,-1.5424,0,0,0,0,0,-1.5419,-1.5426,-1.5426,-1.5439,-1.5441,-1.5439,-1.5442,-1.5439,-1.5442,-1.5443,-1.5443,-1.5445,-1.5451,-1.5455,-1.5461,-1.5476,-1.5475,-1.5483,-1.5485,-1.5487,-1.5488,-1.5495,-1.5498,-1.5467,-1.5467,-1.5467,0,0,-1.5429,-1.543,-1.5435,-1.5442,-1.5444,-1.5451,-1.544,-1.5448,-1.5453,-1.5444,-1.5455,-1.5455,-1.5457,-1.547,-1.5476,-1.5471,-1.5497,-1.5489,-1.549,-1.5491,-1.5497,-1.55,-1.5502,-1.5468,-1.5468,-1.5468,0,0,-1.545,-1.5453,-1.5463,-1.5465,-1.5468,-1.5466,-1.5469,-1.547,-1.5469,-1.548,-1.5473,-1.5479,-1.549,-1.5491,-1.5493,-1.5515,-1.5509,-1.5517,-1.5529,-1.5535,-1.5537,-1.554,-1.5546,-1.5548,-1.5518,-1.5518,-1.5518,0,-1.5462,-1.5473,-1.5469,-1.5478,-1.5481,-1.5473,-1.5483,-1.5485,-1.5489,-1.5491,-1.5486,-1.5498,-1.5499,-1.5512,-1.5517,-1.552,-1.5521,-1.5516,-1.5538,-1.554,-1.5541,-1.5547,-1.555,-1.5519,-1.5519,-1.5519,-1.5519,0,-1.5487,-1.5495,-1.5503,-1.5507,-1.5511,-1.552,-1.5517,-1.5522,-1.5518,-1.5517,-1.5527,-1.5528,-1.5533,-1.5536,-1.5533,-1.5548,-1.5544,-1.5539,-1.5528,-1.5545,-1.5551,-1.5553,-1.552,-1.552,-1.552,-1.552,0,0,-1.5518,-1.5519,-1.5522,-1.5523,-1.5525,-1.5531,-1.5539,-1.5544,-1.5547,-1.5551,-1.5557,-1.5566,-1.556,-1.5562,-1.5559,-1.5565,-1.558,-1.5558,-1.5558,-1.5561,-1.5596,-1.5599,-1.5602,-1.5577,-1.5577,-1.5578,-1.5595,0,-1.5538,-1.5553,-1.5549,-1.5564,-1.557,-1.5562,-1.557,-1.5571,-1.557,-1.5575,-1.5574,-1.5579,-1.5572,-1.5573,-1.5579,-1.5577,-1.5587,-1.5576,-1.5582,-1.5582,-1.558,-1.5605,-1.5609,-1.5626,-1.5597,-1.5598,-1.5598,0,-1.5564,-1.5568,-1.5583,-1.5583,-1.5585,-1.5592,-1.5595,-1.56,-1.5602,-1.56,-1.5603,-1.5598,-1.5606,-1.5596,-1.5606,-1.5599,-1.5601,-1.5601,-1.5601,-1.5601,-1.559,-1.5604,-1.5631,-1.5633,-1.5601,-1.5601,-1.5601,0,-1.5583,-1.5592,-1.5602,-1.5603,-1.5604,-1.5608,-1.5609,-1.561,-1.5612,-1.5615,-1.5617,-1.5621,-1.5623,-1.5626,-1.5622,-1.5616,-1.5632,-1.5623,-1.563,-1.563,-1.5633,-1.5633,-1.566,-1.5637,-1.5637,-1.5637,-1.5637,0,-1.5606,-1.5615,-1.561,-1.5616,-1.5626,-1.5621,-1.5631,-1.563,-1.5631,-1.5636,-1.563,-1.5635,-1.563,-1.5634,-1.5632,-1.564,-1.5641,-1.5639,-1.5638,-1.5639,-1.5639,-1.564,-1.5638,-1.5637,-1.5637,-1.5637,-1.5637,0,-1.5628,-1.5626,-1.5636,-1.5635,-1.5635,-1.5642,-1.5641,-1.5646,-1.5645,-1.5651,-1.5652,-1.565,-1.5654,-1.5651,-1.5656,-1.5654,-1.5664,-1.5662,-1.5663,-1.5662,-1.567,-1.5669,-1.5697,-1.57,-1.5676,-1.5676,-1.5676,0,-1.5642,-1.5649,-1.5649,-1.5652,-1.5653,-1.5658,-1.566,-1.5656,-1.5659,-1.566,-1.5665,-1.5669,-1.5672,-1.568,-1.5678,-1.5681,-1.5678,-1.5688,-1.5679,-1.5679,-1.5677,-1.5676,-1.5676,-1.569,-1.569,-1.569,-1.569,0,-1.5667,-1.5665,-1.5669,-1.5672,-1.5675,-1.5678,-1.568,-1.5682,-1.5678,-1.5681,-1.5686,-1.5688,-1.5693,-1.5696,-1.5699,-1.5699,-1.5694,-1.5693,-1.5695,-1.5696,-1.5696,-1.5694,-1.5667,-1.5693,-1.5692,-1.5692,-1.5692,-1.5692,-1.5685,-1.569,-1.569,-1.5695,-1.5695,-1.5697,-1.5701,-1.57,-1.5704,-1.5707,-1.5704,-1.5709,-1.571,-1.5713,-1.5713,-1.5717,-1.5713,-1.5716,-1.5716,-1.5717,-1.5717,-1.5696,-1.5717,-1.5717,-1.5717,-1.5717,-1.5717,0,-1.5708,-1.5708,-1.5712,-1.5714,-1.5717,-1.5712,-1.5714,-1.5717,-1.5721,-1.5722,-1.5725,-1.573,-1.5733,-1.5731,-1.5734,-1.5737,-1.5735,-1.5738,-1.5737,-1.5737,-1.5721,-1.5719,-1.574,-1.574,-1.574,-1.574,-1.574,-1.574,-1.5721,-1.5728,-1.5726,-1.5734,-1.5734,-1.5739,-1.574,-1.5741,-1.5741,-1.5747,-1.575,-1.5749,-1.5748,-1.5751,-1.5753,-1.5753,-1.5754,-1.5758,-1.5756,-1.5741,-1.5738,-1.5736,-1.5734,-1.5758,-1.5758,-1.5772,-1.5772,-1.5772]},{"header":{"parameterUnit":"m.s-1","parameterCategory":1,"la1":30.2991,"la2":30.254,"lo1":-89.0895,"lo2":-89.0444,"dy":0.0017,"dx":0.0017,"nx":28,"ny":28,"refTime":"2024-07-26T09:00:00:Z","depth":0,"parameterNumber":3,"parameterNumberName":"V-component_of_WINDS"},"data":[0,0,0,0,0,0,0,0,0,0,0,0,0,0,0,0,0,0,0,0,0,0,0,0,0,0,0,0,0,0,0,0,0,0,0,0,0,0,0,0,0,0,0,0,0,0,0,0,0,0,0,0,0,0,0,0,0,0,1.7998,1.7998,0,1.8026,1.8026,1.8026,1.7972,1.797,1.7968,1.7967,1.7993,1.7996,1.7998,0,0,0,0,0,0,0,0,0,0,0,0,0,1.7895,1.7897,1.7998,1.7998,1.7999,1.8026,1.8026,1.8026,1.7972,1.797,1.7968,1.7966,1.7992,1.7995,1.7998,0,0,0,0,0,0,0,0,0,0,0,0,0,1.7933,1.7898,1.7998,1.7975,1.7973,1.8026,1.8026,1.8027,1.7973,1.797,1.7967,1.7965,1.7992,1.7995,1.7998,1.8074,0,0,1.8009,1.8011,0,0,0,0,0,0,0,0,1.7931,1.7937,1.7978,1.7976,1.7975,1.7993,1.7999,1.8043,1.7973,1.7973,1.7967,1.7963,1.7995,1.7998,1.8009,1.8076,1.8077,1.801,1.8012,1.8013,1.8014,0,0,0,0,0,0,0,1.7928,1.7935,1.8009,1.7978,1.7976,1.7962,1.7965,1.8007,1.7999,1.7973,1.7969,1.7973,1.7994,1.8006,1.8009,1.8077,1.801,1.8013,1.8015,1.8016,1.8206,1.8209,0,0,0,0,0,0,1.7929,1.7933,1.8008,1.801,1.7946,1.7966,1.7969,1.7989,1.7998,1.7997,1.7975,1.797,1.8001,1.8005,1.801,1.8099,1.8013,1.8017,1.8019,1.8203,1.8207,1.821,0,0,0,0,0,0,1.7927,1.7936,1.8007,1.797,1.7978,1.7971,1.7994,1.7991,1.8004,1.8,1.7998,1.7989,1.7999,1.8005,1.8059,1.8099,1.8018,1.8022,1.82,1.8204,1.8208,1.8278,0,0,0,0,0,0,1.7924,1.7936,1.7965,1.7972,1.7981,1.8056,1.7997,1.7994,1.801,1.8004,1.8013,1.8012,1.7998,1.8054,1.8062,1.8103,1.8024,1.8196,1.8202,1.8207,1.8272,1.8284,1.8294,0,0,0,0,0,1.7921,1.7983,1.7967,1.7976,1.8017,1.8058,1.8063,1.8046,1.8014,1.8043,1.804,1.8011,1.8093,1.806,1.8069,1.8111,1.8193,1.82,1.8206,1.8267,1.8281,1.8294,0,0,0,0,0,0,1.7981,1.7984,1.7965,1.8032,1.8046,1.8049,1.8085,1.8063,1.8085,1.8078,1.8056,1.8058,1.8116,1.8119,1.8081,1.8184,1.8138,1.8146,1.818,1.8194,1.8205,1.8203,1.8027,0,0,0,0,0,1.8002,1.8036,1.8036,1.8095,1.8103,1.8093,1.811,1.8096,1.8108,1.8114,1.8115,1.8128,1.8156,1.8175,1.8201,1.8272,1.8272,1.8305,1.8316,1.8326,1.8333,1.837,1.8384,1.8231,1.8231,1.8231,0,0,1.8046,1.8052,1.8074,1.8107,1.8116,1.8151,1.8098,1.8137,1.8162,1.8119,1.817,1.8172,1.8184,1.8246,1.8274,1.825,1.8376,1.8334,1.8341,1.8344,1.8378,1.8393,1.8406,1.8236,1.8235,1.8234,0,0,1.8144,1.8152,1.8201,1.8211,1.8225,1.8218,1.823,1.8237,1.8236,1.8287,1.8255,1.8285,1.8334,1.8345,1.8356,1.8457,1.8431,1.8466,1.8525,1.8561,1.8573,1.8584,1.8619,1.8633,1.8474,1.8474,1.8474,0,1.8196,1.8248,1.8229,1.8271,1.8286,1.8249,1.8299,1.8309,1.833,1.8341,1.8315,1.8376,1.8382,1.8446,1.847,1.8481,1.8494,1.8465,1.8573,1.8584,1.8593,1.8627,1.864,1.8478,1.8478,1.8477,1.8477,0,1.8312,1.8348,1.8386,1.8409,1.8428,1.8473,1.8461,1.8482,1.8466,1.8462,1.8513,1.8519,1.8546,1.856,1.8544,1.8621,1.8606,1.8577,1.853,1.8612,1.8643,1.8656,1.8484,1.8483,1.8482,1.8481,0,0,1.8449,1.846,1.8474,1.8484,1.8496,1.8523,1.8566,1.8593,1.8612,1.8627,1.8662,1.8705,1.8678,1.8692,1.8677,1.8709,1.8788,1.8675,1.8675,1.8696,1.8872,1.8894,1.8909,1.8771,1.8773,1.8775,1.8871,0,1.8545,1.862,1.8605,1.8678,1.8711,1.8676,1.8713,1.8725,1.8722,1.8748,1.8744,1.8775,1.8737,1.8745,1.8775,1.8772,1.8823,1.8765,1.8802,1.8804,1.88,1.8926,1.8949,1.9039,1.8883,1.8885,1.8887,0,1.8668,1.8689,1.8766,1.8773,1.8786,1.882,1.8843,1.8869,1.8881,1.8876,1.8891,1.887,1.8912,1.8864,1.8921,1.8882,1.8896,1.8897,1.89,1.8903,1.885,1.8932,1.9068,1.9081,1.8906,1.8904,1.8903,0,1.876,1.8807,1.8859,1.8868,1.8878,1.8902,1.8907,1.8916,1.8933,1.8952,1.8963,1.8986,1.9,1.9018,1.9004,1.8971,1.9063,1.9014,1.906,1.906,1.9081,1.908,1.9221,1.9091,1.909,1.909,1.909,0,1.8869,1.8918,1.8901,1.8933,1.8985,1.8966,1.9019,1.9019,1.9028,1.9058,1.9029,1.9059,1.9038,1.9066,1.9055,1.9103,1.9109,1.9106,1.9103,1.9109,1.9109,1.9118,1.9111,1.9094,1.9093,1.9092,1.9092,0,1.8981,1.8971,1.9026,1.903,1.9032,1.9071,1.9074,1.9103,1.9098,1.9137,1.9145,1.9137,1.9167,1.9155,1.9187,1.918,1.9242,1.923,1.9239,1.9235,1.9281,1.9277,1.9433,1.9453,1.931,1.9311,1.9312,0,1.9051,1.9088,1.9096,1.9115,1.9122,1.9153,1.9169,1.9152,1.917,1.9186,1.9213,1.9242,1.9263,1.9314,1.931,1.9335,1.9323,1.9376,1.9327,1.9332,1.9324,1.9322,1.9325,1.9386,1.9388,1.9389,1.939,0,1.9177,1.9171,1.9196,1.9221,1.9242,1.926,1.9276,1.9292,1.9275,1.9298,1.9329,1.9346,1.9379,1.9407,1.9429,1.9433,1.9409,1.9406,1.9418,1.9424,1.9427,1.9426,1.9265,1.9402,1.9401,1.94,1.94,1.9399,1.927,1.9301,1.9311,1.9341,1.9351,1.9366,1.9393,1.9391,1.9418,1.9444,1.9431,1.9468,1.9477,1.9504,1.9511,1.9539,1.9518,1.9535,1.9539,1.9544,1.955,1.9423,1.9543,1.9542,1.9542,1.9542,1.9541,0,1.9394,1.9399,1.9427,1.9449,1.9473,1.9448,1.9464,1.9485,1.9517,1.9529,1.9551,1.9587,1.9614,1.9612,1.9637,1.9659,1.9649,1.9667,1.9665,1.9666,1.9567,1.9555,1.9675,1.9675,1.9675,1.9675,1.9674,1.9674,1.9462,1.9512,1.9507,1.9561,1.9565,1.9601,1.9612,1.9626,1.9635,1.9676,1.9699,1.9698,1.9704,1.9729,1.9753,1.9751,1.9762,1.9783,1.9778,1.9686,1.9673,1.966,1.9648,1.9786,1.9786,1.9874,1.9875,1.9876]}]]